Location: ?????????
(44.2517°N, 135.2292°E)
Time: 17:29:23
(UTC+00:00)

Cosmos 2298 Rocket - Visible Passes

Search period start: 11 June 2026 00:00
Search period end: 21 June 2026 00:00
Orbit: 773 x 781 km, 74.0° (Epoch: 11 June)

Date Brightness Start Highest point End Pass type
(mag) Time Alt. Az. Time Alt. Az. Time Alt. Az.
11 Jun 5.2 11:09:52 10° N 11:14:30 30° ENE 11:19:05 10° ESE visible
11 Jun 5.0 12:51:56 10° NW 12:56:50 39° WSW 13:00:16 18° SSW visible
12 Jun 4.4 12:17:16 10° NNW 12:22:30 63° WSW 12:26:41 16° S visible
13 Jun 4.0 11:42:47 10° NNW 11:48:06 83° ENE 11:53:08 11° SSE visible
13 Jun 6.4 13:27:20 10° WNW 13:29:33 13° W 13:31:47 10° WSW visible
14 Jun 6.0 12:51:35 10° NW 12:55:26 21° W 12:59:15 10° SW visible
15 Jun 5.4 12:16:32 10° NW 12:21:13 33° W 12:25:52 10° SSW visible
16 Jun 4.7 11:41:48 10° NNW 11:46:56 52° WSW 11:52:01 10° S visible
17 Jun 6.8 12:53:19 10° W 12:53:52 10° W 12:54:23 10° W visible
18 Jun 6.4 12:16:25 10° NW 12:19:46 17° W 12:23:06 10° SW visible
19 Jun 5.9 11:41:11 10° NW 11:45:35 27° W 11:49:58 10° SSW visible
